Find Kosmos-2390

NORAD ID: 27464 Int'l Des: 2002-036 Owner: KVR Country: RU operational
LEOCIRCULARPOLAR

Aktuelle Ansicht

3D-Globus wird geladen...

About Kosmos-2390

Kosmos-2390 (NORAD 27464) is a satellite launched Jul 8, 2002 by KVR of RU. It operates in LEO, CIRCULAR, POLAR orbit with a mass of 225.00 kg.

Nächste Überflüge

Passes for default location (London). Set your location on the main map for personalized predictions.

Höhenverlauf

Loading altitude history...

Zweizeiliger Elementsatz

1 27464U 02036A 26194.64915065 .00000025 00000-0 10792-3 0 9991
2 27464 82.4863 328.4067 0025279 198.4206 161.5962 12.44624348 90963
Epoch: 13. Juli 2026 • Age: 12 hours

Aktueller Status

Höhe 1501.4 km
Apogäum / Perigäum N/A
Geschwindigkeit 7.12 km/s
Subsatellitenpunkt 75.15°N, 130.77°E
Startdatum 8. Juli 2002
Alter 24 years
Typ other

Technische Details

Klassifizierung Payload
Masse 225.00 kg
Trockenmasse 225.00 kg
Gesamtmasse 225.00 kg
Länge 1.60 m
Durchmesser 0.80 m
Spannweite 7.00 m
Form Cyl + Ant
Hersteller NPOPMR
Bus-Typ Strela-3
Phasenstatus In Orbit
Besitzer/Staat KVR/RU

Most Searched